Location: ??
(35.4627°N, 139.3695°E)
Time: 05:57:02
(UTC+00:00)

Atlas Centaur 2 - Pass Details

Date: 25 November 2020
Orbit: 459 x 1309 km, 30.4° (Epoch: 20 January)

Event Time Altitude Azimuth Distance (km) Brightness Sun altitude
Exits shadow 20:04:26 12° 235° (SW) 2,478 4.3 -16.9°
Maximum altitude 20:09:44 39° 170° (S) 1,150 3.1 -15.9°
Drops below altitude 10° 20:14:16 10° 102° (ESE) 2,077 5.7 -15.0°
Sets 20:16:30 0° 94° (E) 2,873 6.7 -14.6°
